EW9824 Weather Reports


Display with metric or nautical units.
time (UTC)temp
F
wind
direction
speed
MPH
gust
MPH
rain 1hr
in
rain 24hr
in
rain mn
in
humidity
%
barometer
mb
20200406150033 31 153 0.0 0.0 0.00 0.01 0.00 99 1.1
20200406144531 31 229 0.0 0.0 0.00 0.01 0.00 99 1.1
20200406143030 30 135 1.0 0.0 0.00 0.01 0.00 99 1.1
20200406141532 30 156 1.0 0.0 0.00 0.01 0.00 98 1.1
20200406140036 30 157 1.0 0.0 0.00 0.01 0.00 98 1.1
20200406134535 31 157 1.0 0.0 0.00 0.01 0.00 98 1.1
20200406133029 31 173 4.0 0.0 0.00 0.01 0.00 98 1.1
20200406131537 30 180 4.0 0.0 0.00 0.01 0.00 98 1.1
20200406130031 30 180 2.0 0.0 0.00 0.01 0.00 98 1.1
20200406124531 31 180 3.0 0.0 0.00 0.01 0.00 98 1.1
20200406123036 30 180 1.0 0.0 0.00 0.01 0.00 98 1.1
20200406121531 31 180 0.0 0.0 0.00 0.01 0.00 98 1.1
20200406120035 31 180 3.0 0.0 0.00 0.01 0.00 98 1.1
20200406114535 30 180 2.0 0.0 0.00 0.01 0.00 98 1.1
20200406113038 30 180 2.0 0.0 0.00 0.01 0.00 98 1.1
20200406111539 30 180 1.0 0.0 0.00 0.01 0.00 98 1.1
20200406110038 30 180 1.0 0.0 0.00 0.01 0.00 97 1.1
20200406104534 30 180 1.0 0.0 0.00 0.01 0.00 97 1.1
20200406103029 31 168 3.0 0.0 0.00 0.01 0.00 97 1.1
20200406101534 31 157 1.0 0.0 0.00 0.01 0.00 97 1.1
20200406100046 32 150 3.0 0.0 0.00 0.01 0.00 97 1.1
20200406094537 32 135 4.0 0.0 0.00 0.01 0.00 97 1.1
20200406093030 31 173 3.0 0.0 0.00 0.01 0.00 97 1.1
20200406091530 32 180 1.0 0.0 0.00 0.01 0.00 97 1.1
20200406090030 33 179 2.0 0.0 0.00 0.01 0.00 97 1.1
20200406084527 33 166 3.0 0.0 0.00 0.01 0.00 97 1.1
20200406083035 33 164 3.0 0.0 0.00 0.01 0.00 97 1.1
20200406081534 34 160 4.0 0.0 0.00 0.01 0.00 97 1.1
20200406074529 33 157 2.0 0.0 0.00 0.01 0.00 96 1.1
20200406073033 33 143 3.0 0.0 0.00 0.01 0.00 96 1.1
20200406071535 33 135 0.0 0.0 0.00 0.01 0.00 96 1.1
20200406070038 34 152 2.0 0.0 0.00 0.01 0.00 96 1.1
20200406064530 35 157 2.0 0.0 0.00 0.01 0.01 96 1.1
20200406063034 35 165 4.0 0.0 0.00 0.01 0.01 96 1.1
20200406061531 34 163 4.0 0.0 0.00 0.01 0.01 95 1.1
20200406060028 34 180 0.0 0.0 0.00 0.01 0.01 94 1.1
20200406054531 36 174 2.0 0.0 0.00 0.01 0.01 95 1.1
20200406053032 36 157 4.0 0.0 0.00 0.01 0.01 94 1.1
20200406051541 36 169 4.0 0.0 0.00 0.01 0.01 94 1.1
20200406050032 37 172 2.0 0.0 0.00 0.01 0.01 93 1.1
20200406044530 37 157 3.0 0.0 0.00 0.01 0.01 92 1.1
20200406043034 38 174 2.0 0.0 0.00 0.01 0.01 92 1.1
20200406041529 39 168 3.0 0.0 0.00 0.01 0.01 92 1.1
20200406040040 39 150 2.0 0.0 0.00 0.01 0.01 91 1.1
20200406034529 40 190 1.0 0.0 0.00 0.01 0.00 90 1.1
20200406033036 41 136 1.0 0.0 0.00 0.01 0.01 88 1.1
20200406031548 42 135 1.0 0.0 0.00 0.01 0.01 86 1.1
20200406030029 44 135 2.0 0.0 0.00 0.01 0.00 83 1.1
20200406024535 45 174 1.0 0.0 0.00 0.01 0.01 81 1.1
20200406023038 46 177 1.0 0.0 0.00 0.02 0.01 80 1.1
20200406021539 46 144 2.0 0.0 0.00 0.02 0.01 80 1.1
20200406020029 46 188 1.0 0.0 0.00 0.03 0.00 79 1.1
20200406014530 46 219 0.0 0.0 0.00 0.03 0.01 78 1.1
20200406013032 46 204 2.0 0.0 0.00 0.04 0.01 77 1.1
20200406011543 47 228 1.0 0.0 0.00 0.04 0.01 77 1.1
20200406010032 47 162 1.0 0.0 0.00 0.04 0.01 76 1.1
20200406004531 47 167 1.0 0.0 0.00 0.04 0.00 76 1.1
20200406003039 48 137 1.0 0.0 0.00 0.04 0.01 76 1.1
20200406001540 47 148 1.0 0.0 0.00 0.04 0.01 76 1.1
20200406000111 47 153 2.0 0.0 0.00 0.04 0.01 77 1.1
20200405234534 47 144 2.0 0.0 0.00 0.04 0.01 77 1.1
20200405233052 46 175 3.0 0.0 0.00 0.04 0.01 77 1.1
20200405231537 46 181 2.0 0.0 0.00 0.04 0.01 77 1.1
20200405230038 46 143 2.0 0.0 0.00 0.04 0.01 77 1.1
20200405223104 47 153 2.0 0.0 0.00 0.04 0.01 76 1.1
20200405221535 47 147 3.0 0.0 0.00 0.04 0.01 76 1.1
20200405220030 47 118 2.0 0.0 0.00 0.04 0.01 76 1.1
20200405214535 46 134 3.0 0.0 0.00 0.04 0.01 76 1.1
20200405213032 46 149 3.0 0.0 0.00 0.04 0.01 76 1.1
20200405211529 46 313 2.0 0.0 0.00 0.04 0.01 77 1.1
20200405210116 46 259 1.0 0.0 0.00 0.04 0.01 76 1.1
20200405204534 46 228 1.0 0.0 0.00 0.04 0.01 77 1.1
20200405203036 45 252 2.0 0.0 0.00 0.04 0.01 78 1.1
20200405201541 45 323 4.0 0.0 0.00 0.04 0.01 78 1.1
20200405200032 45 330 2.0 0.0 0.00 0.04 0.01 78 1.1
20200405194529 44 345 1.0 0.0 0.00 0.04 0.01 79 1.1
20200405193040 44 13 4.0 0.0 0.00 0.04 0.01 80 1.1
20200405191544 44 1 5.0 0.0 0.00 0.04 0.01 81 1.1
20200405190030 42 352 6.0 0.0 0.00 0.04 0.01 82 1.1
20200405183043 42 356 7.0 0.0 0.00 0.04 0.01 83 1.1
20200405181540 42 346 5.0 0.0 0.00 0.04 0.01 84 1.1
20200405180029 41 341 5.0 0.0 0.00 0.04 0.01 84 1.1
20200405174558 41 339 6.0 0.0 0.00 0.04 0.01 84 1.1
20200405173050 42 22 3.0 0.0 0.00 0.04 0.01 85 1.1
20200405171531 41 262 2.0 0.0 0.00 0.04 0.01 88 1.1
20200405170107 41 265 2.0 0.0 0.00 0.04 0.01 88 1.1
20200405164538 40 257 1.0 0.0 0.00 0.04 0.01 90 1.1
20200405163030 39 228 1.0 0.0 0.00 0.04 0.01 91 1.1
20200405161537 39 177 0.0 0.0 0.00 0.04 0.01 92 1.1
20200405160033 38 135 0.0 0.0 0.01 0.04 0.01 95 1.1
20200405154528 38 148 1.0 0.0 0.01 0.04 0.01 96 1.1
20200405153040 37 222 1.0 0.0 0.01 0.04 0.01 96 1.1
20200405151531 37 225 1.0 0.0 0.01 0.04 0.01 97 1.1